Weather History for KPKB - January, 2013

Change the Weather History Date:

Tuesday, January 29, 2013

  Actual Average Record
Temperature  
Mean Temperature 61 °F 32 °F  
Max Temperature 69 °F 40 °F 73 °F (1903)
Min Temperature 52 °F 24 °F -11 °F (2014)
Degree Days  
Heating Degree Days 4 33  
Month to date heating degree days 891 972  
Cooling Degree Days 0 0  
Month to date cooling degree days 0 0  
Year to date cooling degree days 0 0  
Growing Degree Days 10 (Base 50)    
Moisture  
Dew Point 50 °F    
Average Humidity 71    
Maximum Humidity 93    
Minimum Humidity 49    
Precipitation  
Precipitation 0.02 in 0.09 in 0.88 in (2008)
Month to date precipitation 2.09 2.75  
Year to date precipitation 2.09 2.75  
Sea Level Pressure  
Sea Level Pressure 30.02 in    
Wind  
Wind Speed 9 mph (SSW)    
Max Wind Speed 20 mph    
Max Gust Speed 29 mph    
Visibility 8 miles    
Events Rain    
T = Trace of Precipitation, MM = Missing Value Source: NWS Daily Summary

Daily Weather History Graph

Daily Weather History Graph

Search for Another Location

Airport or City:

Trip Planner

Search our weather history database for the weather conditions in past years. The results will help you decide how hot, cold, wet, or windy it might be!

Date:

Astronomy

Jan. 29, 2013 Rise Set
Actual Time 7:35 AM EST 5:43 PM EST
Civil Twilight 7:06 AM EST 6:11 PM EST
Nautical Twilight 6:34 AM EST 6:43 PM EST
Astronomical Twilight 6:02 AM EST 7:15 PM EST
Moon 8:36 PM EST (1/29) 8:32 AM EST (1/29)
Length of Visible Light 11h 04m
Length of Day
10h 07m
Waning Gibbous, 94% of the Moon is Illuminated
Jan 29
Waning Gibbous
Feb 3
Last Quarter
Feb 10
New
Feb 17
First Quarter
Feb 25
Full

Hourly Weather History & Observations

Time (EST) Temp. Dew Point Humidity Pressure Visibility Wind Dir Wind Speed Gust Speed Precip Events Conditions
12:53 AM 53.1 °F 51.1 °F 93% 30.12 in 4.0 mi SW 6.9 mph - N/A   Overcast
1:44 AM 53.6 °F 51.8 °F 94% 30.10 in 2.5 mi SSW 5.8 mph - 0.01 in   Overcast
1:53 AM 53.1 °F 51.1 °F 93% 30.11 in 3.0 mi SW 5.8 mph - 0.01 in   Overcast
2:13 AM 53.6 °F 51.8 °F 94% 30.11 in 2.5 mi SW 4.6 mph - 0.00 in Rain Light Rain
2:24 AM 53.6 °F 51.8 °F 94% 30.10 in 4.0 mi SW 6.9 mph - 0.00 in   Overcast
2:53 AM 53.1 °F 51.1 °F 93% 30.10 in 5.0 mi SSW 6.9 mph - 0.01 in   Overcast
3:11 AM 53.6 °F 51.8 °F 94% 30.10 in 5.0 mi SSW 5.8 mph - N/A   Overcast
3:41 AM 51.8 °F 50.0 °F 94% 30.09 in 6.0 mi SSW 6.9 mph - N/A   Overcast
3:53 AM 53.1 °F 50.0 °F 89% 30.10 in 6.0 mi SSW 5.8 mph - N/A   Overcast
4:38 AM 53.6 °F 50.0 °F 88% 30.09 in 7.0 mi SSW 4.6 mph - N/A   Overcast
4:53 AM 53.1 °F 50.0 °F 89% 30.10 in 7.0 mi South 4.6 mph - N/A   Overcast
5:53 AM 53.1 °F 50.0 °F 89% 30.08 in 8.0 mi South 5.8 mph - N/A   Overcast
6:53 AM 54.0 °F 48.9 °F 83% 30.07 in 9.0 mi SSW 10.4 mph - N/A   Overcast
7:53 AM 54.0 °F 48.9 °F 83% 30.08 in 9.0 mi SSW 8.1 mph - N/A   Overcast
8:53 AM 55.0 °F 48.9 °F 80% 30.09 in 9.0 mi SSW 9.2 mph - N/A   Overcast
9:53 AM 57.9 °F 50.0 °F 75% 30.07 in 10.0 mi SSW 9.2 mph 17.3 mph N/A   Partly Cloudy
10:53 AM 60.1 °F 50.0 °F 69% 30.07 in 10.0 mi SSW 11.5 mph 21.9 mph N/A   Mostly Cloudy
11:53 AM 62.1 °F 51.1 °F 67% 30.05 in 10.0 mi SSW 13.8 mph 20.7 mph N/A   Mostly Cloudy
12:53 PM 64.0 °F 52.0 °F 65% 30.02 in 10.0 mi SW 8.1 mph - N/A   Mostly Cloudy
1:53 PM 66.0 °F 50.0 °F 56% 29.98 in 10.0 mi South 15.0 mph 24.2 mph N/A   Partly Cloudy
2:53 PM 69.1 °F 51.1 °F 53% 29.95 in 10.0 mi South 12.7 mph 19.6 mph N/A   Partly Cloudy
3:53 PM 68.0 °F 50.0 °F 52% 29.93 in 10.0 mi South 16.1 mph 21.9 mph N/A   Clear
4:53 PM 68.0 °F 48.9 °F 50% 29.91 in 10.0 mi SSE 5.8 mph - N/A   Clear
5:53 PM 64.9 °F 48.9 °F 56% 29.90 in 10.0 mi SSE 5.8 mph - N/A   Partly Cloudy
6:53 PM 63.0 °F 48.9 °F 60% 29.90 in 10.0 mi South 5.8 mph - N/A   Clear
7:53 PM 64.0 °F 48.9 °F 58% 29.88 in 10.0 mi South 10.4 mph - N/A   Clear
8:53 PM 63.0 °F 48.9 °F 60% 29.89 in 10.0 mi South 11.5 mph - N/A   Clear
9:53 PM 63.0 °F 48.9 °F 60% 29.85 in 10.0 mi SSE 6.9 mph - N/A   Clear
10:53 PM 64.0 °F 48.0 °F 56% 29.82 in 10.0 mi South 8.1 mph - N/A   Clear
11:53 PM 63.0 °F 46.9 °F 56% 29.80 in 10.0 mi SSE 9.2 mph - N/A   Clear